KC3ROS Weather Reports


Display with metric or nautical units.
time (UTC)temp
F
wind
direction
speed
MPH
gust
MPH
rain 1hr
in
rain 24hr
in
rain mn
in
humidity
%
barometer
mb
20260906092651 58 30 3.0 4.0 0.00 0.00 0.00 98 1015.3
20260906092151 58 1 2.0 3.0 0.00 0.00 0.00 98 1015.3
20260906091647 58 29 2.0 4.0 0.00 0.00 0.00 98 1015.1
20260906091143 58 18 3.0 4.0 0.00 0.00 0.00 98 1015.2
20260906090639 58 12 3.0 3.0 0.00 0.00 0.00 98 1015.3
20260906090138 58 11 2.0 4.0 0.00 0.00 0.00 98 1015.1
20260906085637 58 24 3.0 4.0 0.00 0.00 0.00 98 1015.2
20260906085132 58 11 3.0 4.0 0.00 0.00 0.00 97 1015.0
20260906084626 59 22 3.0 4.0 0.00 0.00 0.00 97 1015.1
20260906084125 59 31 2.0 4.0 0.00 0.00 0.00 97 1014.9
20260906083621 59 24 2.0 3.0 0.00 0.00 0.00 97 1015.1
20260906083115 59 11 3.0 4.0 0.00 0.00 0.00 97 1015.1
20260906082611 59 29 2.0 3.0 0.00 0.00 0.00 97 1014.9
20260906082106 59 33 2.0 3.0 0.00 0.00 0.00 97 1014.9
20260906081601 59 8 2.0 3.0 0.00 0.00 0.00 97 1015.0
20260906081051 59 7 3.0 4.0 0.00 0.00 0.00 97 1015.0
20260906080548 59 30 2.0 3.0 0.00 0.00 0.00 97 1014.8
20260906080043 59 7 2.0 3.0 0.00 0.00 0.00 96 1014.8
20260906075538 59 14 3.0 4.0 0.00 0.00 0.00 96 1014.9
20260906075032 59 26 3.0 4.0 0.00 0.00 0.00 96 1014.7
20260906074527 59 26 2.0 4.0 0.00 0.00 0.00 96 1015.0
20260906074025 59 18 3.0 3.0 0.00 0.00 0.00 96 1015.0
20260906073521 59 35 2.0 3.0 0.00 0.00 0.00 96 1014.9
20260906073017 59 10 2.0 3.0 0.00 0.00 0.00 96 1014.8
20260906072512 59 18 2.0 4.0 0.00 0.00 0.00 96 1014.7
20260906072008 60 6 2.0 3.0 0.00 0.00 0.00 95 1014.7
20260906071504 60 28 2.0 3.0 0.00 0.00 0.00 95 1014.5
20260906070959 60 24 2.0 3.0 0.00 0.00 0.00 95 1014.7
20260906070455 60 41 1.0 3.0 0.00 0.00 0.00 95 1014.7
20260906065950 60 15 2.0 3.0 0.00 0.00 0.00 94 1014.6
20260906065450 60 6 2.0 3.0 0.00 0.00 0.00 94 1014.8
20260906064945 60 8 2.0 3.0 0.00 0.00 0.00 94 1014.7
20260906064442 60 10 2.0 3.0 0.00 0.00 0.00 94 1014.7
20260906063936 60 26 2.0 3.0 0.00 0.00 0.00 94 1014.7
20260906063432 60 20 2.0 3.0 0.00 0.00 0.00 93 1014.6
20260906062926 60 13 2.0 3.0 0.00 0.00 0.00 93 1014.6
20260906062421 60 24 2.0 3.0 0.00 0.00 0.00 93 1014.6
20260906061915 61 11 2.0 3.0 0.00 0.00 0.00 93 1014.5
20260905232100 74 0 3.0 3.0 0.00 0.00 0.00 77 1013.2
20260905231555 74 0 3.0 3.0 0.00 0.00 0.00 77 1013.2
20260905231051 74 0 2.0 4.0 0.00 0.00 0.00 77 1013.3
20260905230550 74 359 3.0 4.0 0.00 0.00 0.00 77 1013.2
20260905230049 74 350 2.0 3.0 0.00 0.00 0.00 77 1013.1
20260905225549 75 351 2.0 3.0 0.00 0.00 0.00 76 1013.3
20260905225044 75 0 2.0 3.0 0.00 0.00 0.00 77 1013.3
20260905224543 75 0 2.0 3.0 0.00 0.00 0.00 77 1013.2
20260905224043 75 340 2.0 3.0 0.00 0.00 0.00 78 1013.1
20260905223541 75 355 2.0 4.0 0.00 0.00 0.00 78 1013.1
20260905223036 75 348 2.0 6.0 0.00 0.00 0.00 77 1013.0
20260905222531 76 342 4.0 5.0 0.00 0.00 0.00 78 1012.9
20260905222026 76 356 1.0 3.0 0.00 0.00 0.00 77 1012.8
20260905221523 76 354 2.0 4.0 0.00 0.00 0.00 77 1012.9
20260905221019 76 345 2.0 5.0 0.00 0.00 0.00 78 1012.9
20260905220514 77 355 2.0 6.0 0.00 0.00 0.00 77 1012.8
20260905220010 76 345 2.0 3.0 0.00 0.00 0.00 77 1013.0
20260905215505 76 352 2.0 3.0 0.00 0.00 0.00 79 1012.7
20260905215001 75 347 2.0 3.0 0.00 0.00 0.00 81 1012.8
20260905214456 75 335 2.0 3.0 0.00 0.00 0.00 82 1012.7
20260905213956 75 4 0.0 2.0 0.00 0.00 0.00 82 1012.5
20260905213452 75 353 1.0 3.0 0.00 0.00 0.00 81 1012.6
20260905212947 76 332 3.0 6.0 0.00 0.00 0.00 80 1012.6
20260905212442 76 356 2.0 3.0 0.00 0.00 0.00 81 1012.6
20260905211940 75 6 2.0 3.0 0.00 0.00 0.00 82 1012.4
20260905211431 76 4 2.0 6.0 0.00 0.00 0.00 81 1012.5
20260905210926 76 349 3.0 5.0 0.00 0.00 0.00 80 1012.7
20260905210421 76 352 2.0 3.0 0.00 0.00 0.00 80 1012.7
20260905205920 75 323 1.0 2.0 0.00 0.00 0.00 82 1012.5
20260905205415 75 10 2.0 6.0 0.00 0.00 0.00 83 1012.6
20260905204914 75 10 1.0 2.0 0.00 0.00 0.00 83 1012.7
20260905204411 75 357 2.0 3.0 0.00 0.00 0.00 82 1012.7
20260905203909 76 14 1.0 2.0 0.00 0.00 0.00 83 1012.6
20260905203405 75 11 1.0 2.0 0.00 0.00 0.00 84 1012.7
20260905202900 75 0 1.0 3.0 0.00 0.00 0.00 83 1012.7
20260905202355 75 5 2.0 3.0 0.00 0.00 0.00 83 1012.9
20260905201850 75 7 0.0 2.0 0.00 0.00 0.00 82 1012.7
20260905201346 76 356 2.0 2.0 0.00 0.00 0.00 84 1012.9
20260905200840 76 351 2.0 3.0 0.00 0.00 0.00 83 1012.9
20260905200336 75 340 0.0 2.0 0.00 0.00 0.00 82 1012.8
20260905195833 75 350 1.0 3.0 0.00 0.00 0.00 84 1013.1
20260905195329 75 15 0.0 2.0 0.00 0.00 0.00 84 1013.0
20260905194825 75 2 0.0 2.0 0.00 0.00 0.00 83 1013.0
20260905194319 75 359 1.0 3.0 0.00 0.00 0.00 82 1013.2
20260905193818 75 18 2.0 3.0 0.00 0.00 0.00 83 1013.1
20260905193313 75 7 1.0 2.0 0.00 0.00 0.00 82 1013.0
20260905192809 76 2 1.0 2.0 0.00 0.00 0.00 82 1013.0
20260905192306 75 356 2.0 2.0 0.00 0.00 0.00 84 1013.3
20260905191804 75 336 0.0 3.0 0.00 0.00 0.00 83 1013.2
20260905191302 76 337 2.0 2.0 0.00 0.00 0.00 82 1013.2
20260905190801 77 349 0.0 3.0 0.00 0.00 0.00 82 1013.5
20260905190255 75 1 0.0 2.0 0.00 0.00 0.00 82 1013.4
20260905185754 76 359 1.0 2.0 0.00 0.00 0.00 83 1013.4
20260905185248 74 351 0.0 1.0 0.00 0.00 0.00 85 1013.3
20260905184742 75 10 1.0 1.0 0.00 0.00 0.00 86 1013.6
20260905184241 74 351 0.0 1.0 0.00 0.00 0.00 87 1013.6
20260905183735 74 313 0.0 2.0 0.00 0.00 0.00 87 1013.6
20260905183231 74 352 2.0 3.0 0.00 0.00 0.00 86 1013.5
20260905182725 75 3 2.0 3.0 0.00 0.00 0.00 85 1013.7
20260905182224 75 356 2.0 5.0 0.00 0.00 0.00 85 1013.7
20260905181714 75 358 2.0 2.0 0.00 0.00 0.00 84 1013.5
20260905181213 73 23 2.0 2.0 0.00 0.00 0.00 86 1013.6
20260905180708 73 352 1.0 2.0 0.00 0.00 0.00 88 1013.6
20260905180203 74 15 2.0 4.0 0.00 0.00 0.00 88 1013.8
20260905175703 74 2 1.0 3.0 0.00 0.00 0.00 86 1013.8
20260905175158 75 18 3.0 4.0 0.00 0.00 0.00 85 1014.0
20260905174653 75 22 2.0 3.0 0.00 0.00 0.00 86 1013.8
20260905174149 73 316 1.0 2.0 0.00 0.00 0.00 88 1013.7
20260905173644 73 349 2.0 5.0 0.00 0.00 0.00 90 1013.7
20260905173140 73 351 2.0 3.0 0.00 0.00 0.00 89 1013.8
20260905172639 74 359 2.0 4.0 0.00 0.00 0.00 89 1013.6
20260905172134 74 32 2.0 3.0 0.00 0.00 0.00 88 1013.8
20260905171630 75 343 2.0 7.0 0.00 0.00 0.00 86 1013.9
20260905171125 74 3 2.0 4.0 0.00 0.00 0.00 86 1013.8
20260905170621 73 351 2.0 3.0 0.00 0.00 0.00 88 1013.9
20260905170117 73 335 3.0 5.0 0.00 0.00 0.00 88 1013.9
20260905165612 73 345 2.0 3.0 0.00 0.00 0.00 88 1014.2
20260905165107 74 4 2.0 2.0 0.00 0.00 0.00 88 1014.4
20260905164601 74 0 2.0 4.0 0.00 0.00 0.00 88 1014.3
20260905164055 73 8 1.0 2.0 0.00 0.00 0.00 90 1014.2
20260905163552 73 2 1.0 2.0 0.00 0.00 0.00 90 1014.2
20260905163048 73 358 2.0 5.0 0.00 0.00 0.00 90 1014.5
20260905162544 73 0 1.0 3.0 0.00 0.00 0.00 90 1014.5
20260905162038 73 25 0.0 2.0 0.00 0.00 0.00 90 1014.5
20260905161537 73 353 1.0 2.0 0.00 0.00 0.00 90 1014.4
20260905161036 73 339 1.0 1.0 0.00 0.00 0.00 90 1014.5
20260905160534 73 357 1.0 2.0 0.00 0.00 0.00 90 1014.5
20260905160029 73 359 2.0 3.0 0.00 0.00 0.00 89 1014.8
20260905155529 73 2 2.0 2.0 0.00 0.00 0.00 89 1014.8
20260905155027 73 7 1.0 3.0 0.00 0.00 0.00 88 1014.6
20260905154523 73 355 2.0 3.0 0.00 0.00 0.00 89 1014.6
20260905154018 73 357 2.0 2.0 0.00 0.00 0.00 88 1014.5
20260905153514 74 335 2.0 3.0 0.00 0.00 0.00 88 1014.4
20260905153013 74 331 1.0 3.0 0.00 0.00 0.00 87 1014.5
20260905152508 74 16 1.0 2.0 0.00 0.00 0.00 89 1014.3
20260905152003 73 329 0.0 1.0 0.00 0.00 0.00 88 1014.4
20260905151458 74 2 1.0 1.0 0.00 0.00 0.00 88 1014.4
20260905150953 74 333 0.0 2.0 0.00 0.00 0.00 87 1014.3
20260905150448 74 252 3.0 3.0 0.00 0.00 0.00 86 1014.2
20260905145944 73 150 0.0 3.0 0.00 0.00 0.00 88 1014.3
20260905145439 73 29 0.0 1.0 0.00 0.00 0.00 89 1014.3
20260905144939 73 22 0.0 2.0 0.00 0.00 0.00 90 1013.9
20260905144434 73 78 1.0 2.0 0.00 0.00 0.00 91 1014.2
20260905143933 72 38 0.0 1.0 0.00 0.00 0.00 91 1014.2
20260905143426 72 76 1.0 2.0 0.00 0.00 0.00 92 1013.9
20260905142921 72 322 0.0 1.0 0.00 0.00 0.00 95 1014.0
20260905142420 71 345 0.0 2.0 0.00 0.00 0.00 97 1013.7
20260905141916 70 37 0.0 2.0 0.00 0.00 0.00 99 1013.6
20260905141411 70 19 1.0 2.0 0.00 0.00 0.00 99 1013.8
20260905140907 69 326 0.0 1.0 0.00 0.00 0.00 99 1013.7
20260905140402 69 338 1.0 2.0 0.00 0.00 0.00 99 1013.8
20260905135900 69 340 0.0 2.0 0.00 0.00 0.00 99 1013.8
20260905135356 69 11 0.0 2.0 0.00 0.00 0.00 99 1013.7
20260905134852 68 22 1.0 2.0 0.00 0.00 0.00 99 1013.9
20260905134350 68 11 0.0 0.0 0.00 0.00 0.00 99 1014.0
20260905133844 68 29 0.0 2.0 0.00 0.00 0.00 99 1014.2
20260905133340 68 349 2.0 3.0 0.00 0.00 0.00 99 1014.4
20260905132839 68 5 2.0 3.0 0.00 0.00 0.00 99 1014.5
20260905132335 68 354 0.0 2.0 0.00 0.00 0.00 99 1014.4
20260905131829 67 22 1.0 2.0 0.00 0.00 0.00 99 1014.3
20260905131325 67 12 0.0 2.0 0.00 0.00 0.00 99 1014.6
20260905130820 67 25 0.0 2.0 0.00 0.00 0.00 99 1014.6
20260905130318 67 327 1.0 2.0 0.00 0.00 0.00 99 1014.6
20260905125814 67 27 0.0 1.0 0.00 0.00 0.00 99 1014.4
20260905125309 67 5 0.0 2.0 0.00 0.00 0.00 99 1014.3
20260905124805 67 40 1.0 2.0 0.00 0.00 0.00 99 1014.4
20260905124301 67 348 0.0 2.0 0.00 0.00 0.00 99 1014.3
20260905123756 67 336 0.0 2.0 0.00 0.00 0.00 99 1014.4
20260905123253 67 30 0.0 1.0 0.00 0.00 0.00 99 1014.4
20260905122752 67 301 0.0 2.0 0.00 0.00 0.00 99 1014.4
20260905122251 66 310 0.0 1.0 0.00 0.00 0.00 99 1014.5
20260905121747 66 37 0.0 2.0 0.00 0.00 0.00 99 1014.3
20260905121244 66 0 1.0 3.0 0.00 0.00 0.00 99 1014.2
20260905120742 66 37 0.0 2.0 0.00 0.00 0.00 99 1014.5
20260905120237 66 34 1.0 2.0 0.00 0.00 0.00 99 1014.2
20260905115731 66 13 0.0 2.0 0.00 0.00 0.00 99 1014.3
20260905115226 66 50 0.0 2.0 0.00 0.00 0.00 99 1014.4
20260905114720 66 282 0.0 3.0 0.00 0.00 0.00 99 1014.3
20260905114218 66 266 1.0 3.0 0.00 0.00 0.00 99 1014.2
20260905113713 66 9 0.0 3.0 0.00 0.00 0.00 99 1014.0
20260905113209 66 344 1.0 3.0 0.00 0.00 0.00 99 1013.9
20260905112708 66 353 3.0 3.0 0.00 0.00 0.00 99 1014.0
20260905112203 66 335 3.0 4.0 0.00 0.00 0.00 99 1014.2
20260905111658 66 4 2.0 3.0 0.00 0.00 0.00 99 1013.9
20260905111157 66 6 2.0 3.0 0.00 0.00 0.00 99 1013.8
20260905110656 66 4 2.0 3.0 0.00 0.00 0.00 99 1013.8
20260905110152 66 4 2.0 3.0 0.00 0.00 0.00 99 1013.9
20260905105647 66 1 2.0 3.0 0.00 0.00 0.00 99 1014.2
20260905105146 66 6 2.0 3.0 0.00 0.00 0.00 99 1013.8
20260905104641 66 8 2.0 3.0 0.00 0.00 0.00 99 1013.8
20260905104137 66 9 2.0 3.0 0.00 0.00 0.00 99 1013.8
20260905103632 66 16 1.0 3.0 0.00 0.00 0.00 99 1014.0
20260905103128 67 13 2.0 2.0 0.00 0.00 0.00 99 1013.7
20260905102623 67 6 1.0 3.0 0.00 0.00 0.00 99 1013.7
20260905102120 67 11 2.0 3.0 0.00 0.00 0.00 99 1013.6
20260905101618 67 22 1.0 3.0 0.00 0.00 0.00 99 1013.6
20260905101116 67 17 2.0 3.0 0.00 0.00 0.00 99 1013.6
20260905100613 67 7 2.0 3.0 0.00 0.00 0.00 99 1013.4
20260905100108 67 17 1.0 2.0 0.00 0.00 0.00 99 1013.3
20260905095601 67 11 1.0 3.0 0.00 0.00 0.00 99 1012.9
20260905095057 67 13 1.0 3.0 0.00 0.00 0.00 99 1013.2
20260905094551 67 358 3.0 3.0 0.00 0.00 0.00 99 1013.0
20260905094050 67 11 2.0 3.0 0.00 0.00 0.00 99 1013.0
20260905093545 67 8 2.0 3.0 0.00 0.00 0.00 99 1012.9
20260905093042 67 12 2.0 3.0 0.00 0.00 0.00 99 1013.0